Lapse_Rate
6.0 6.4 6.5 6.8 6.5 6.5 6.6 6.5 6.5 6.5 6.5 7.4 7.6 7.0 6.7 7.2 6.5 6.5 7.2 7.1 7.3 7.4 7.0 6.5 5.8 6.3 6.3 6.3 6.1 5.9 6.0 6.1 6.0 6.1 6.1 6.8 6.2 6.2 6.1 6.1 6.1 6.0 6.3 6.4 6.3 6.4 6.3 6.3 6.0
5.3 6.0 6.8 7.5 6.5 6.5 6.5 6.5 6.6 6.5 6.9 7.8 7.7 7.5 7.0 6.6 8.0 7.1 7.9 6.7 7.5 7.2 7.5 6.7 6.1 5.8 6.3 6.2 6.1 6.0 6.1 6.0 6.3 6.3 6.5 6.1 6.2 6.2 6.3 6.3 6.1 6.1 6.3 6.3 6.4 6.2 6.1 5.9 5.6
5.7 6.4 7.2 6.5 6.5 6.5 6.5 6.5 6.5 6.9 7.5 7.3 7.0 7.8 7.4 7.1 7.7 8.2 7.4 6.9 7.5 7.4 7.6 6.9 6.0 5.7 6.1 6.2 6.0 5.9 6.0 6.0 6.1 6.2 6.0 6.3 6.2 6.4 6.2 6.1 6.1 5.9 5.8 6.1 6.1 6.0 5.8 5.9 5.8
6.4 6.5 7.1 6.4 6.5 6.5 6.5 6.5 6.8 6.8 7.4 7.7 7.6 6.6 8.2 8.2 8.5 7.7 7.3 7.4 7.9 7.7 7.4 6.9 6.2 5.8 6.0 6.1 6.1 6.1 6.0 6.0 5.9 6.0 6.5 6.4 6.3 6.1 6.2 6.0 6.0 5.9 6.0 6.1 6.3 6.1 6.1 6.1 6.1
6.9 7.6 6.5 6.4 6.4 6.4 6.5 7.0 7.1 6.5 6.9 7.2 7.6 6.8 7.4 7.0 7.1 7.2 7.1 7.4 7.9 7.4 7.5 7.4 6.5 6.0 6.0 6.0 6.2 6.1 6.3 6.3 5.9 5.9 6.1 6.2 6.1 6.5 6.3 6.1 6.0 6.1 6.1 6.3 6.3 6.2 6.1 6.4 6.6
7.1 7.3 6.5 6.5 6.5 6.5 6.7 7.3 7.1 6.9 7.2 7.4 7.2 7.1 7.3 7.4 7.8 7.4 7.7 7.6 7.6 7.9 7.8 7.2 6.7 6.5 6.0 6.4 6.3 6.2 6.5 6.2 5.9 6.0 6.0 6.1 6.1 6.4 6.4 6.8 6.3 6.1 5.8 6.0 6.2 6.1 6.0 6.2 6.3
6.7 6.5 6.4 6.5 6.5 6.5 6.5 7.5 6.9 6.9 7.0 6.9 7.9 6.5 7.5 7.8 7.1 7.5 8.0 7.9 7.7 7.7 7.9 7.5 6.6 7.2 6.9 6.3 6.5 6.9 6.3 6.1 6.0 6.2 6.4 6.3 6.3 6.5 6.8 6.8 6.1 5.9 6.3 6.4 6.3 6.1 6.0 6.0 6.3
7.3 6.5 6.5 6.5 6.4 6.5 6.8 7.2 7.5 7.2 6.8 8.3 8.1 6.7 6.9 7.2 7.4 7.7 7.5 8.1 7.9 8.0 7.5 7.7 6.4 4.2 4.5 5.1 6.8 7.0 6.6 6.3 6.3 6.3 6.5 6.7 6.9 6.9 6.7 5.8 5.8 6.4 6.5 6.5 6.5 6.5 6.5 6.5 6.4
7.4 6.6 6.4 6.4 6.5 6.5 7.3 6.6 7.7 8.1 7.6 7.8 8.0 7.8 7.0 6.5 7.5 8.0 7.6 7.6 7.3 7.4 7.6 7.7 6.8 4.9 4.7 5.1 6.3 5.8 6.4 6.8 6.3 6.3 6.4 6.2 7.4 7.5 7.2 6.4 6.3 6.4 6.2 6.2 6.4 6.4 6.3 6.3 6.6
6.9 6.6 6.5 6.6 6.6 6.5 7.0 6.9 7.1 7.1 7.1 7.3 7.5 6.7 6.4 6.8 8.1 8.3 7.3 7.4 7.1 7.1 6.9 7.7 6.6 5.8 5.2 5.7 3.8 3.2 4.6 5.5 5.8 6.1 6.0 6.4 6.6 7.5 7.2 5.9 5.4 5.1 5.2 5.0 5.0 5.0 5.3 6.0 7.7
6.9 6.6 6.5 6.7 7.2 7.4 7.0 7.0 7.6 7.0 6.5 7.3 7.4 7.7 7.9 7.8 8.4 8.5 7.7 8.2 7.6 7.2 6.7 6.8 6.3 6.1 4.6 4.7 3.9 3.7 4.0 3.9 5.1 5.4 5.8 5.4 6.1 6.2 6.7 6.5 6.5 6.3 5.7 7.2 7.0 7.4 7.6 7.1 7.2
6.5 6.8 6.9 7.1 7.4 7.3 6.9 7.4 6.9 7.1 7.1 7.8 8.1 7.5 6.8 7.8 8.2 8.5 8.2 7.4 6.4 6.9 7.1 6.8 6.4 5.6 4.6 4.8 5.7 4.8 4.2 3.7 4.9 4.7 5.6 6.1 6.8 6.5 6.3 7.1 6.7 6.5 7.1 6.6 6.7 7.1 6.4 6.4 6.8
6.5 6.6 7.1 7.4 7.4 7.4 7.5 6.9 6.9 7.2 7.2 8.1 7.3 7.7 7.8 8.2 7.8 8.1 8.3 7.4 7.0 6.4 7.1 6.8 6.2 5.9 4.9 4.8 5.7 6.0 5.8 4.2 3.3 4.0 5.7 6.5 6.9 6.3 6.3 6.5 6.5 6.4 6.4 6.6 6.7 6.6 6.7 6.9 7.6
7.0 6.9 7.0 7.2 7.3 7.3 6.7 6.9 7.1 7.4 7.5 7.8 7.7 7.8 8.2 8.2 8.1 7.3 7.0 6.4 6.9 7.2 6.9 6.5 5.9 5.5 5.0 4.2 4.8 5.0 4.9 3.5 3.8 4.3 5.4 5.4 6.4 5.8 6.2 6.4 6.6 6.5 6.5 6.6 6.7 6.6 6.8 7.4 7.5
7.0 6.5 6.6 6.9 7.0 6.6 7.2 6.5 6.5 7.5 7.8 7.6 7.8 8.0 8.1 8.2 7.8 6.7 6.3 5.9 6.8 7.0 6.7 5.8 5.8 5.0 5.0 5.2 5.3 5.3 4.6 3.8 4.0 4.2 4.7 5.1 5.4 5.3 5.1 6.5 6.8 6.7 6.2 6.2 7.1 7.5 7.5 8.2 8.1
6.5 6.5 6.5 6.5 6.7 6.8 6.9 6.5 6.6 7.7 7.5 7.5 7.8 7.9 8.0 8.0 7.1 6.8 6.0 6.2 5.5 6.3 6.0 6.0 6.0 5.0 5.0 5.3 4.7 6.5 4.8 4.3 4.3 4.0 4.5 4.3 5.1 5.4 5.1 6.9 6.9 6.1 6.6 7.1 7.5 7.8 7.5 7.8 7.9
6.5 6.5 6.4 6.5 6.8 6.5 6.5 6.4 6.7 7.6 7.5 7.3 7.6 7.8 8.0 8.1 8.0 6.5 6.1 5.7 5.6 5.3 5.5 5.7 5.8 5.2 5.0 4.4 4.2 6.0 4.7 4.1 4.2 4.0 3.6 4.4 5.1 5.5 5.4 6.7 6.5 5.9 6.9 7.4 7.1 7.1 6.7 6.9 7.8
6.5 6.5 6.5 6.5 6.5 6.5 6.6 6.5 6.6 7.4 7.5 7.3 7.5 7.8 7.8 8.0 8.1 6.9 6.5 5.9 5.6 5.2 4.9 5.9 7.0 6.0 5.1 4.9 4.6 4.5 4.6 4.8 5.3 4.9 4.0 3.8 4.2 5.7 5.6 6.7 5.9 6.0 6.7 7.0 6.9 6.2 7.2 7.0 7.1
6.5 6.6 6.5 6.5 6.5 6.4 6.5 6.6 6.6 7.1 7.3 7.2 7.5 7.5 7.8 7.9 6.6 6.7 6.5 6.0 5.7 5.4 4.3 5.5 6.0 6.6 6.1 6.9 7.2 6.3 5.7 5.0 6.7 5.4 5.2 4.9 5.6 5.4 5.2 6.5 6.5 6.3 6.3 6.1 6.1 6.4 6.4 6.2 6.7
6.5 6.5 6.5 6.5 6.5 6.6 6.5 6.5 6.5 6.8 7.0 7.3 7.4 6.7 6.4 7.8 8.1 7.1 6.8 6.4 6.2 5.7 5.4 5.6 5.9 5.9 6.6 6.1 5.7 5.5 6.6 6.4 6.2 6.0 4.9 4.6 4.3 5.0 5.7 5.3 6.5 6.1 6.6 6.2 6.2 6.0 6.3 6.3 7.1
6.5 6.5 6.5 6.5 6.6 6.5 6.5 6.5 6.5 6.5 7.2 7.4 7.7 7.4 6.8 6.8 7.7 7.9 6.8 6.7 6.3 5.8 5.1 4.9 5.1 5.4 6.0 6.4 6.6 6.4 6.2 5.5 6.1 6.2 4.7 6.1 5.2 5.4 5.3 5.4 5.6 5.7 6.0 6.3 6.0 5.5 5.7 6.6 6.5
6.5 6.5 6.4 6.5 6.5 6.5 6.4 6.5 6.4 6.5 6.5 6.7 7.3 7.7 7.7 6.9 8.0 7.8 8.1 7.3 6.8 6.4 6.1 4.2 3.5 5.2 5.4 5.2 6.0 6.2 7.4 5.3 4.5 5.9 6.6 6.8 5.1 4.5 5.4 5.6 5.4 5.3 5.8 5.6 5.0 6.1 6.2 5.9 6.3
6.6 6.5 6.5 6.5 6.5 6.5 6.5 6.6 6.6 6.5 6.5 6.5 7.0 7.5 7.9 7.9 6.8 7.1 7.2 8.3 7.5 6.5 6.3 5.3 2.9 4.6 5.1 4.9 5.3 6.2 6.5 5.9 5.6 5.0 6.0 4.6 4.7 5.3 5.6 5.6 5.3 5.1 4.6 4.9 5.2 4.7 5.3 6.3 6.5
6.5 6.5 6.5 6.5 6.5 6.5 6.5 6.5 6.5 6.5 6.6 6.5 6.9 7.5 7.7 8.1 7.4 7.2 6.2 7.8 7.2 6.7 6.9 5.8 4.5 3.1 3.7 4.8 4.8 4.9 5.4 6.2 3.8 3.8 3.4 4.5 4.3 4.7 5.5 5.0 4.4 3.7 4.6 5.3 5.3 5.1 5.3 5.8 6.3
6.5 6.5 6.4 6.6 6.5 6.5 6.5 6.5 6.5 6.5 6.5 6.5 6.7 7.3 7.7 7.7 7.1 7.0 6.1 6.6 6.8 6.3 6.2 6.2 4.7 4.4 3.7 3.7 3.6 4.2 5.2 4.2 3.7 3.6 4.2 4.4 5.8 4.9 3.8 3.4 3.7 4.3 4.9 4.8 4.5 5.1 5.2 5.5 6.3
6.5 6.5 6.5 6.4 6.5 6.5 6.6 6.5 6.5 6.5 6.9 7.2 7.4 7.7 7.8 8.0 8.3 8.1 7.3 5.8 5.7 6.2 5.4 5.7 5.0 4.4 4.6 3.8 3.6 3.0 2.8 3.2 3.2 3.4 3.5 4.4 3.5 3.3 3.4 3.5 4.5 4.4 4.8 5.0 5.0 5.4 4.9 4.8 5.0
6.5 6.5 6.5 6.5 6.5 6.5 6.5 6.5 6.5 6.5 6.5 6.9 7.2 7.5 7.7 7.9 8.1 8.1 8.3 6.2 5.5 5.8 5.2 5.5 5.1 4.8 5.1 4.1 4.6 3.4 3.3 3.4 3.6 3.9 3.7 3.8 3.9 3.9 4.6 4.9 5.0 4.6 4.6 5.1 5.1 5.9 5.6 5.4 5.5
6.5 6.6 6.5 6.5 6.6 6.4 6.6 6.5 6.5 6.5 6.5 6.5 6.7 7.2 7.6 7.9 8.0 8.2 8.0 6.8 6.0 6.1 5.7 5.6 5.4 4.8 4.8 4.6 4.3 4.1 4.4 4.0 3.1 3.4 4.1 4.2 4.3 4.6 4.5 4.4 4.7 4.8 4.9 5.2 5.6 5.5 5.0 5.3 6.0
6.5 6.5 6.5 6.5 6.5 6.5 6.5 6.5 6.6 6.5 6.5 6.5 6.8 7.3 7.6 7.7 7.8 7.8 7.2 6.6 6.1 5.7 5.7 5.5 5.3 5.5 4.3 5.3 5.3 5.3 4.8 5.4 5.1 4.4 3.7 3.5 3.5 3.8 4.7 5.0 5.2 5.2 4.7 5.0 5.0 4.8 4.9 5.2 5.1
6.5 6.4 6.5 6.5 6.5 6.5 6.6 6.5 6.5 6.5 6.6 6.9 7.1 7.5 7.6 7.8 7.9 7.4 5.9 6.1 6.3 5.5 5.9 5.9 5.7 5.9 5.9 5.7 5.0 5.1 5.0 5.0 3.9 3.5 3.4 4.1 4.3 4.7 4.8 4.9 4.4 4.6 4.9 4.8 5.3 5.5 5.6 5.5 5.1
Wind_Speed
13 11 4 2 2 1 3 5 5 0 1 2 1 3 7 6 4 6 3 2 9 8 9 14 22 21 22 21 21 23 23 23 23 23 23 21 20 18 17 16 15 14 13 12 10 10 8 6 5
13 8 3 1 2 8 5 4 6 5 5 12 12 9 9 6 4 7 6 6 9 9 9 13 23 22 21 21 21 21 24 24 22 21 21 21 20 18 16 15 13 12 11 10 9 8 6 6 5
8 2 1 1 3 7 6 10 12 13 9 4 4 7 3 4 4 6 6 10 10 9 9 14 20 21 20 20 21 22 24 24 22 21 20 19 18 16 15 13 11 10 9 8 7 6 5 4 4
3 2 1 3 9 4 7 8 9 11 9 8 10 8 5 7 2 4 11 10 10 8 9 13 18 21 21 22 22 23 23 23 21 20 18 17 15 14 13 11 10 9 8 6 5 5 5 4 3
1 1 3 5 6 4 9 9 6 4 5 7 6 7 5 6 8 12 10 9 10 9 9 12 16 19 19 22 21 22 20 19 19 18 16 15 14 12 11 10 9 8 7 6 5 5 5 4 3
0 1 3 4 5 7 6 7 6 11 12 14 10 7 3 3 6 8 9 8 9 10 9 10 13 17 19 20 19 19 18 16 16 15 14 13 13 11 9 10 9 8 8 6 4 3 3 1 1
2 1 3 8 9 6 5 6 4 10 10 6 8 5 4 4 5 7 8 9 9 10 10 10 12 12 16 17 17 16 15 13 13 12 11 13 13 11 9 10 9 7 6 4 2 2 3 3 4
2 1 3 3 8 4 8 5 10 5 6 8 2 4 5 6 7 10 9 9 9 8 10 11 15 17 11 11 11 13 12 12 12 12 11 11 11 10 11 9 7 6 4 3 3 5 6 7 7
2 2 3 4 9 7 9 6 7 3 8 4 3 5 10 14 11 11 10 9 9 8 8 11 16 21 13 10 10 7 7 6 7 8 10 11 9 10 10 7 5 3 2 3 5 7 8 9 7
1 1 2 6 9 12 12 10 8 7 6 5 9 11 13 12 11 10 9 9 9 9 8 9 12 16 15 13 12 13 7 5 6 8 10 10 9 7 8 5 3 4 3 3 4 6 6 6 7
4 2 1 2 9 15 15 7 5 10 3 8 13 14 12 11 10 10 8 8 8 8 7 9 9 14 10 10 12 7 10 7 8 7 9 8 6 5 4 3 1 1 2 3 5 6 7 8 9
3 5 3 7 9 14 15 8 7 8 2 11 12 16 14 12 10 9 9 9 8 8 9 8 9 9 12 8 12 11 7 8 8 6 8 5 4 3 2 1 2 3 3 5 5 6 9 10 10
3 2 8 11 12 12 10 7 6 9 4 12 13 13 12 11 10 7 7 8 8 8 9 9 9 8 11 9 6 12 12 8 9 5 5 4 3 2 0 0 1 2 4 4 5 6 7 9 10
0 8 14 11 11 11 10 5 6 8 10 13 14 14 12 11 11 9 8 7 8 8 7 8 8 9 11 10 5 8 12 10 7 2 2 3 2 1 1 2 3 4 4 3 4 5 5 7 9
5 12 8 9 10 6 11 5 4 10 13 14 14 13 12 11 10 10 8 8 8 7 8 8 8 9 9 9 9 8 10 12 6 3 0 2 1 2 3 3 4 6 6 5 4 5 5 6 8
5 4 4 7 5 3 4 3 6 14 14 14 14 12 12 12 12 9 9 7 7 7 9 8 7 8 7 7 7 9 9 9 9 5 5 3 1 2 4 4 4 6 6 5 5 4 5 6 7
6 4 3 7 3 3 5 1 6 14 15 13 13 14 13 11 11 10 10 9 8 8 8 9 9 8 8 8 7 7 9 9 7 9 10 4 3 2 4 4 5 8 7 6 5 5 4 6 7
4 3 4 8 8 8 9 6 7 14 15 16 14 13 13 12 14 12 11 9 9 8 8 8 8 10 8 7 6 4 3 6 8 10 9 8 5 3 4 5 5 7 6 5 5 6 5 6 7
4 4 12 8 2 5 11 7 9 12 16 16 12 11 10 10 10 11 11 10 9 9 9 12 10 10 8 7 6 6 4 4 5 9 12 10 8 4 5 7 6 6 6 7 7 6 6 5 4
3 6 5 4 3 2 7 12 9 14 19 17 14 11 11 12 13 14 13 11 11 10 10 11 12 11 9 6 5 2 5 5 6 8 10 9 7 7 8 7 7 7 6 7 7 5 5 4 3
5 6 6 3 7 4 1 13 13 14 15 13 13 15 16 15 16 15 14 13 12 11 12 11 11 10 10 9 6 4 4 2 5 6 3 9 7 7 9 10 9 9 7 6 7 6 5 5 2
7 6 7 8 8 3 6 7 11 19 18 16 17 17 16 14 14 14 15 15 14 12 10 9 9 10 10 11 8 9 7 6 4 5 4 4 4 5 9 10 11 9 8 8 6 4 5 5 6
1 6 7 6 5 2 8 5 5 8 15 19 20 19 18 18 17 17 16 15 14 12 11 10 8 11 10 10 8 7 7 5 0 1 2 2 2 6 8 10 10 8 6 5 4 4 5 5 5
13 8 6 3 1 4 4 6 6 8 14 16 18 20 19 18 18 14 14 13 14 12 12 12 12 8 10 11 10 9 8 4 1 1 1 1 2 4 8 10 9 5 4 4 4 3 5 4 5
3 6 1 2 2 3 2 5 12 7 5 12 18 19 19 17 17 16 17 15 15 15 15 14 13 13 10 9 8 8 7 3 2 1 2 4 5 4 7 7 5 3 3 4 6 5 3 1 0
11 3 2 3 2 4 1 6 3 2 4 9 8 15 15 18 18 20 20 18 16 16 17 15 15 13 11 9 5 3 3 2 2 2 3 6 4 3 8 7 6 5 7 6 5 1 3 4 4
7 5 1 4 0 4 2 5 15 11 11 5 10 14 17 19 19 19 19 16 15 17 17 17 15 13 10 9 7 5 4 2 3 6 4 5 6 6 7 7 5 5 4 5 4 4 5 6 5
5 12 3 3 3 4 4 6 7 7 5 7 12 14 15 16 16 16 16 16 16 16 15 15 14 14 13 11 9 7 8 7 9 8 6 5 3 4 5 4 5 5 6 7 6 6 6 6 5
6 5 2 2 1 3 4 5 3 10 4 11 12 12 16 17 17 15 15 15 16 15 15 15 14 14 11 13 10 10 9 10 9 4 3 3 5 6 7 7 7 7 7 7 8 8 7 8 8
5 5 9 7 5 2 2 5 2 7 6 9 10 12 13 15 16 16 16 16 15 15 14 15 13 13 13 12 11 11 8 7 7 7 7 6 6 6 7 8 8 8 8 8 8 9 8 9 9
Wind_Direction
157 155 148 172 144 145 55 88 125 138 9 286 340 94 81 47 25 97 79 90 130 125 128 126 125 124 127 123 124 124 127 128 129 127 125 124 123 119 116 114 111 104 100 101 100 99 100 99 95
145 146 177 214 82 89 74 51 100 139 163 105 90 91 71 69 64 116 138 129 131 125 128 126 124 125 130 129 130 131 130 131 129 127 123 126 128 126 124 121 114 107 103 102 103 103 106 106 109
149 180 241 69 51 65 85 96 115 123 144 129 106 54 47 55 92 125 106 136 135 125 126 132 127 129 135 134 134 133 132 134 130 128 130 129 130 125 125 122 119 117 115 110 111 109 104 103 111
161 170 168 54 80 76 118 127 129 123 98 88 107 75 87 22 132 117 131 137 138 133 127 136 131 126 135 136 134 132 131 131 133 132 136 135 131 130 128 125 125 121 110 108 106 101 101 93 86
219 219 66 90 65 77 121 124 128 117 90 109 114 109 73 41 86 120 128 139 141 137 134 139 134 130 135 130 130 125 124 128 130 133 138 138 136 135 133 130 126 118 109 96 96 97 88 69 44
230 19 103 93 93 95 109 136 89 96 110 108 98 98 74 92 116 117 129 135 142 138 138 140 140 135 129 128 126 125 126 129 131 137 142 141 144 136 133 131 123 117 114 110 92 78 80 92 350
39 7 65 114 120 126 144 150 123 130 125 104 123 93 112 132 114 117 122 131 135 141 138 136 131 125 118 117 115 120 125 131 135 141 137 134 132 127 130 113 115 123 115 103 69 7 348 349 340
86 3 111 114 152 122 148 133 134 125 91 114 112 135 146 155 138 120 119 128 130 132 135 135 128 92 58 78 108 129 134 147 157 155 152 138 130 132 113 128 122 113 102 60 0 345 348 340 334
154 103 144 144 163 151 162 147 155 117 130 73 25 105 119 139 141 135 124 132 135 135 136 140 134 139 153 143 134 91 116 146 143 139 132 116 129 123 132 95 117 100 55 12 348 351 341 328 298
224 97 87 182 170 168 167 165 145 151 139 83 96 105 124 137 147 148 149 152 154 148 146 148 144 139 145 130 81 58 69 93 90 118 114 112 118 110 115 111 76 45 7 346 339 322 317 302 320
166 136 185 149 178 159 162 172 151 156 162 167 160 149 145 142 148 152 157 161 159 159 155 157 149 141 102 118 117 64 64 68 85 90 102 102 110 106 133 147 161 292 321 312 314 315 320 323 320
215 230 158 126 137 153 164 150 154 180 30 175 158 153 154 159 159 161 160 164 156 177 159 165 148 116 114 115 147 144 98 50 74 89 108 119 134 118 154 187 270 283 301 304 304 310 314 311 306
251 77 128 129 144 149 152 168 160 209 114 143 146 159 163 166 167 165 154 166 164 171 171 172 159 138 126 110 118 129 133 123 72 47 105 129 139 111 260 318 314 327 319 302 308 316 319 309 308
175 144 126 142 142 155 152 163 165 193 142 148 162 174 175 180 178 165 169 174 170 169 169 158 161 142 123 129 175 121 117 99 99 69 54 95 125 99 35 17 45 21 14 3 345 350 338 327 320
126 108 113 141 140 175 134 170 250 153 168 167 180 183 182 188 184 186 177 171 178 168 165 168 165 151 135 147 145 138 127 124 142 132 33 85 129 52 5 3 21 15 0 348 324 331 330 326 317
108 93 125 180 155 143 226 184 203 160 175 189 186 191 195 190 191 183 178 167 174 176 169 164 163 155 144 141 142 147 137 147 161 189 224 232 353 15 2 351 6 350 344 340 327 334 331 321 313
30 149 170 173 196 177 223 280 185 179 188 199 204 198 196 189 188 183 178 173 166 174 161 162 150 154 143 131 130 159 152 142 164 196 219 232 271 334 347 331 341 339 333 328 331 317 319 314 320
153 149 181 199 198 209 206 216 184 185 199 210 207 208 205 196 192 183 179 167 169 164 163 162 164 158 146 143 136 113 126 149 185 199 225 233 252 286 320 313 324 327 324 316 307 306 313 305 315
134 209 221 192 110 224 233 225 220 196 206 218 199 200 201 203 182 181 177 172 166 169 171 181 172 176 161 171 168 163 176 180 197 200 220 227 242 262 275 294 306 310 303 305 301 298 308 315 308
134 192 198 81 112 175 317 267 246 207 214 216 191 180 195 188 180 181 182 179 183 179 180 185 188 177 187 178 177 175 182 198 205 209 220 232 239 251 263 278 294 306 304 298 288 298 312 298 302
205 224 179 168 175 208 216 271 240 235 233 212 194 192 199 193 184 179 187 190 185 188 184 185 191 190 192 193 179 176 177 194 211 220 217 234 257 253 256 269 287 297 287 290 303 293 270 290 268
240 209 175 159 166 214 208 273 233 220 226 214 200 198 199 192 190 181 186 193 191 195 182 173 184 190 190 187 189 194 207 207 214 224 207 232 240 256 267 275 281 283 291 290 286 279 273 264 288
111 175 158 167 192 236 195 258 261 184 222 215 209 208 204 193 190 188 189 195 193 189 184 178 177 193 187 187 196 200 217 230 220 274 270 269 263 253 275 284 294 294 283 267 273 287 271 267 274
133 118 98 88 191 242 335 251 260 202 213 206 204 211 207 194 190 193 182 187 195 187 182 182 189 186 185 188 193 209 222 243 119 299 354 323 280 294 303 312 291 278 281 278 271 274 267 268 276
147 174 243 221 203 276 326 222 258 240 219 208 198 204 206 184 187 191 180 185 188 184 184 191 187 198 187 188 190 205 207 187 208 326 338 334 313 318 318 310 277 244 222 268 251 269 265 210 94
183 227 217 295 298 313 180 242 276 273 305 222 214 203 191 190 189 189 188 186 186 184 185 183 190 204 196 192 179 164 173 150 55 323 315 292 276 271 272 258 257 235 256 247 231 160 87 72 65
148 206 68 111 85 272 241 267 271 263 236 219 183 174 181 186 188 189 186 184 178 185 189 185 190 203 177 192 178 186 188 186 281 279 265 264 264 243 234 231 219 210 202 153 114 89 80 77 69
234 153 163 224 245 262 253 277 264 314 183 171 175 176 172 178 185 183 183 184 185 188 189 185 188 196 178 192 188 201 193 185 220 242 246 245 197 182 151 149 139 122 115 104 109 98 78 86 76
154 190 133 160 230 266 305 309 225 285 274 189 186 178 169 174 178 176 178 182 184 180 181 185 184 190 177 194 194 205 205 203 221 233 164 133 136 139 131 118 116 115 109 99 94 91 93 91 85
204 170 192 234 189 245 333 287 219 294 235 195 187 178 173 172 167 172 172 177 177 182 176 183 184 191 185 192 192 195 203 200 160 152 144 136 128 129 125 125 113 108 107 106 103 102 95 89 86